Location: Chomutov
(50.4500°N, 13.4333°E)
Time: 15:32:42
(UTC+02:00)

UKube-1 - Visible Passes

Search period start: 24 September 2021 00:00
Search period end: 04 October 2021 00:00
Orbit: 611 x 618 km, 98.4° (Epoch: 24 September)

Date Brightness Start Highest point End Pass type
(mag) Time Alt. Az. Time Alt. Az. Time Alt. Az.
24 Sep ? 21:32:07 10° NNE 21:33:15 17° NNE 21:33:15 17° NNE visible
24 Sep ? 23:08:30 10° N 23:10:17 19° NNW 23:10:17 19° NNW visible
25 Sep ? 21:47:37 10° NNE 21:48:49 18° NNE 21:48:49 18° NNE visible
25 Sep ? 23:24:27 10° NNW 23:25:51 15° NNW 23:25:51 15° NNW visible
26 Sep ? 22:03:11 10° NNE 22:04:22 18° NNE 22:04:22 18° NNE visible
26 Sep ? 23:40:34 10° NNW 23:41:24 12° NW 23:41:24 12° NW visible
27 Sep ? 22:18:49 10° N 22:19:56 18° N 22:19:56 18° N visible
28 Sep ? 22:34:30 10° N 22:35:29 16° N 22:35:29 16° N visible
29 Sep ? 22:50:15 10° N 22:51:03 15° N 22:51:03 15° N visible
30 Sep ? 23:06:04 10° N 23:06:37 13° N 23:06:37 13° N visible
01 Oct ? 23:21:58 10° NNW 23:22:11 11° NNW 23:22:11 11° NNW visible
